Weather Roundup
Issued by NWS

Home | Current Version | Previous Version | Graphics & Text | Print | Product List | Glossary Off
Versions: 1 2 3 4 5 6 7 8 9 10 11 12 13 14 15 16 17 18 19 20 21 22 23 24 25 26 27 28 29 30 31 32 33 34 35 36 37 38 39 40 41 42 43 44 45 46 47 48 49 50

000
NZUS93 KARX 271859
HRRWXR

CURRENT HOURLY OBSERVATIONS ACROSS
MUCH OF THE UPPER MISSISSIPPI VALLEY
NATIONAL WEATHER SERVICE LA CROSSE WI
100 PM CST TUE JAN 27 2015


...SOUTHEAST MINNESOTA...


CITY           SKY/WX    TMP DP  RH WIND       PRES   REMARKS
ROCHESTER      CLOUDY    30  25  81 E7        30.16F WCI  23
ROCHESTER/MAYO CLOUDY    31  24  75 E5        30.17S WCI  26
WINONA         CLOUDY    30  23  74 CALM      30.21F
AUSTIN         CLOUDY    32  27  80 SE5       30.14F WCI  27
ALBERT LEA     CLOUDY    36  28  75 SE6       30.14S WCI  31
DODGE CENTER   CLOUDY    32  28  86 E7        30.15S WCI  26
PRESTON        CLOUDY    28  23  82 CALM      30.17S
OWATONNA       CLOUDY    34  27  75 E5        30.16R WCI  30
FARIBAULT      CLOUDY    34  27  75 E6        30.17R WCI  29
$$

...ELSEWHERE IN MINNESOTA...


CITY           SKY/WX    TMP DP  RH WIND       PRES   REMARKS
MINNEAPOLIS    CLOUDY    33  24  69 SE8       30.17S WCI  26
INTNL FALLS    CLOUDY    28  23  81 SE7       30.07F WCI  21
DULUTH         CLOUDY    28  21  75 SW8       30.12F WCI  20
RED WING       CLOUDY    32  25  74 SE7       30.18S WCI  26
REDWOOD FALLS  CLOUDY    33  29  85 SE8       30.12S WCI  26
MANKATO        CLOUDY    36  27  69 SE7       30.15R WCI  30
WORTHINGTON    MOSUNNY   36  30  80 S14       30.08F WCI  27
FAIRMONT       CLOUDY    36  25  64 SE10      30.11F WCI  28
$$

...SOUTHWEST WISCONSIN...


CITY           SKY/WX    TMP DP  RH WIND       PRES   REMARKS
LA CROSSE      CLOUDY    31  20  63 CALM      30.20F
PRAIRIE DU CHI CLOUDY    30  20  67 NE3       30.20S
BOSCOBEL       CLOUDY    30  21  69 CALM      30.21S
LONE ROCK      NOT AVBL
PLATTEVILLE    CLOUDY    28  23  82 NE6       30.18S WCI  21
FORT MC COY    CLOUDY    28  22  76 CALM      30.21S
VIROQUA        CLOUDY    27  22  82 NE6       30.17S WCI  20
WIS DELLS      NOT AVBL
$$

...ELSEWHERE IN WISCONSIN...


CITY           SKY/WX    TMP DP  RH WIND       PRES   REMARKS
MILWAUKEE      MOSUNNY   29  15  56 NE9       30.19S WCI  20
MADISON        LGT SNOW  28  23  81 E5        30.18S WCI  23
GREEN BAY      CLOUDY    26  16  65 NE9       30.22S WCI  17
EAU CLAIRE     CLOUDY    30  19  63 CALM      30.20R
BLACK RVR FLS  CLOUDY    29  22  76 CALM      30.19F
MEDFORD        CLOUDY    24  21  88 S5        30.15S FOG     WCI  18
WAUSAU         CLOUDY    24  20  84 CALM      30.16F
WIS RAPIDS     CLOUDY    25  21  85 SE5       30.21S WCI  19
MARSHFIELD     CLOUDY    25  21  85 SE3       30.17S FOG
RICE LAKE      CLOUDY    29  22  76 S3        30.20R
$$

...NORTHEAST IOWA...


CITY           SKY/WX    TMP DP  RH WIND       PRES   REMARKS
DECORAH        CLOUDY    28  25  86 N5        30.17S WCI  23
MASON CITY     CLOUDY    34  29  82 SE7       30.16S WCI  28
CHARLES CITY   CLOUDY    34  30  86 E6        30.17S WCI  29
OELWEIN        CLOUDY    30  27  86 VRB5      30.18S WCI  25
$$

...ELSEWHERE IN IOWA...


CITY           SKY/WX    TMP DP  RH WIND       PRES   REMARKS
DES MOINES     MOSUNNY   43  30  60 E6        30.15F
IOWA CITY      CLOUDY    33  26  75 E6        30.20S WCI  28
FORT DODGE     SUNNY     39  32  75 SE7       30.14F WCI  34
$$

...NORTHERN ILLINOIS...


CITY           SKY/WX    TMP DP  RH WIND       PRES   REMARKS
CHICAGO-OHARE  MOSUNNY   31  18  58 NE8       30.16S WCI  23
CHICAGO-MIDWAY MOSUNNY   32  19  58 NE6       30.17S WCI  26
MOLINE         CLOUDY    30  22  72 N6        30.19F WCI  24
ROCKFORD       CLOUDY    30  23  75 E6        30.19F WCI  24
PEORIA         CLOUDY    33  25  72 N3        30.18S
$$

NOTE: "FAIR" INDICATES FEW OR NO CLOUDS BELOW 12,000 FEET WITH NO
SIGNIFICANT WEATHER AND/OR OBSTRUCTIONS TO VISIBILITY. WIND
SPEEDS ARE IN MILES-PER-HOUR.



USA.gov is the U.S. government's official web portal to all federal, state and local government web resources and services.